sat.trackr.live / text

‹ back to catalog

STARLINK-4716

NORAD 53706 · 2022-107G

PAYLOAD ACTIVE UNKNOWN

§ Identity

Operator
Country
US
Launch date
2022-09-05
Launch site
AFETR
Launch vehicle
Mass (kg)
RCS (m²)

Purposes: comms

External: N2YO · Heavens-Above · Gunter

§ Orbital elements

Epoch: 2026-05-24T14:31:21.836640Z

Period
95.44 min
Inclination
53.2162°
Eccentricity
0.0001330
Mean motion
15.08838825 rev/d
Perigee alt
538.8 km
Apogee alt
540.7 km
Semi-major
6,917.9 km
B*
-1.3942e-6
RAAN
263.3845°
Arg perigee
89.3800°
Mean anomaly
270.7345°
Rev number
20,631

§ Raw data

STARLINK-47161 53706U 22107G   26144.60511385 -.00000310  00000+0 -13942-5 0  99982 53706  53.2162 263.3845 0001330  89.3800 270.7345 15.08838825206316

JSON: /api/v1/satellites/53706 · /tle

For live sub-satellite position, see the globe view (requires WebGL).

§ Visibility from observer

Set your observer location to see the next 7 days of passes ≥ 10°. The values pass through the URL so the page stays shareable.

No JS? Fill the form by hand. The geolocation button needs JavaScript.